BOUJ'AN COURANT 2026 - 10/05/2026

10 Km

Signaler une erreur
Télécharger au format excel :
Télécharger au format pdf :

Pl Do. Nom - Surname Prénom - Name S-Cat /cat Club - Team TEMPS - Time Km/h /sx Diplôme
1 221 MIRIDJANIAN MARVIN MSE 1   00:37:01 16,2 1
2 2 STARCK CHRISTOPHE MM0 1 beziers trail running 00:38:53 15,4 2
3 1 CAVALIER BENOIT MM0 2 beziers trail running 00:38:54 15,4 3
4 42 VERES SÉBASTIEN MM0 3   00:41:44 14,4 4
5 87 CHEVREUIL MATHIEU MM2 1 Cap triathlon team 00:41:57 14,3 5
6 113 CLAIR STEPHANE MM3 1   00:41:58 14,3 6
7 66 BOULANGER YANNICK MM2 2   00:42:13 14,2 7
8 133 HANSEN OLIVIER MM2 3 Triathlon Pezenas 00:42:19 14,2 8
9 86 PALAZY DAVID MM2 4 Vccb - team crouzette 00:42:38 14,1 9
10 51 TROIS CYRILLE MM3 2 VTR VIAS 00:43:01 13,9 10
11 101 VILLARD MAXIME MSE 2 beziers trail running 00:43:41 13,7 11
12 22 DAGORN GUILLAUME MM0 4 beziers trail running 00:44:01 13,6 12
13 7 CORNEILLE LUC MM5 1 TAM MONTADY 00:44:43 13,4 13
14 103 PERES FLORENT MSE 3 beziers trail running 00:44:43 13,4 14
15 6 FABRE LUCAS MM0 5 beziers trail running 00:44:45 13,4 15
16 13 ALENGRIN DAMIEN MSE 4 BOUJAN CITY 00:44:59 13,3 16
17 102 NIN MARCO MSE 5 beziers trail running 00:45:00 13,3 17
18 192 MALLET NOE MCA 1   00:45:17 13,2 18
19 202 RICHER GUILLAUME MM2 5   00:46:10 13,0 19
20 186 ALBARRACIN FABIEN MSE 6   00:46:20 12,9 20
21 189 WALCKER PAUL   5   00:47:12 12,7 21
22 33 DISCART EMMANUEL MM3 3 ATHLE PEZENAS 34 00:47:25 12,7 22
23 85 DURRANDE JEAN BAPTISTE MM4 1   00:47:36 12,6 23
24 5 FABRE ANAIS FM0 1 beziers trail running 00:48:01 12,5 1
25 175 BOUIRAT MATTHIEU MM1 1 beziers trail running 00:48:20 12,4 24
26 71 SEGUIN SEBASTIEN MM3 4   00:48:31 12,4 25
27 24 BEIGNON ADRIEN MM0 6   00:48:34 12,4 26
28 134 ROUANET ELODIE FM1 1 Swimrun Triathlon Pézenas 00:48:42 12,3 2
29 220 BUSCAYE PHILIPPE MM4 2   00:49:04 12,2 27
30 135 SERIN GAILLARD MATHILDE FM0 2 beziers trail running 00:49:16 12,2 3
31 180 CAVALIER THOMAS MSE 7 beziers trail running 00:49:29 12,1 28
32 21 BOYER CHRISTOPHE MM4 3   00:49:34 12,1 29
33 169 CHABOUD MATHIAS MM2 6 beziers trail running 00:49:43 12,1 30
34 70 HANSEN MATHIEU MM1 2   00:49:43 12,1 31
35 67 DELGADO GILBERT MM5 2   00:49:46 12,1 32
36 44 LAURIOL ERIC MM1 3   00:49:47 12,0 33
37 217 GIBOIRE JULIEN MM2 7   00:49:55 12,0 34
38 20 BOYER RÉMI MSE 8   00:50:05 12,0 35
39 203 CAMPS LAURELINE FM0 3   00:50:16 11,9 4
40 208 MICHEL JEROME MM1 4   00:50:26 11,9 36
41 47 BAIXAS JULIEN MM2 8 beziers trail running 00:50:34 11,9 37
42 65 BARIAS EMMANUEL MM2 9 beziers trail running 00:50:37 11,9 38
43 165 COMBES ELISE FM3 1 Run in Crès 00:50:57 11,8 5
44 109 GILLES JEREMY MM3 5   00:51:02 11,8 39
45 142 MORALES FABRICE MM6 1 LRUN (Lieuran) 00:51:06 11,7 40
46 148 CANTIER JULIEN MM1 5   00:51:08 11,7 41
47 17 RICHARDIÈRE ARNAUD MM1 6   00:51:08 11,7 42
48 198 ANGELOTTI ROCK MM1 7   00:51:12 11,7 43
49 213 MOREAU YOHANN MM1 8   00:51:15 11,7 44
50 83 ASTEZAN ROGER MM4 4   00:51:24 11,7 45
51 32 HALLIER MARIE PIERRE FM3 2   00:51:25 11,7 6
52 158 ABELLA MATHIDE FM1 2   00:51:31 11,6 7
53 64 PIQUE PHILIPPE MM6 2 TAM MONTADY 00:51:38 11,6 46
54 212 TORTI CLAUDE MM4 5   00:51:38 11,6 47
55 230 BARTHA ALBAN MSE 9   00:51:51 11,6 48
56 110 TURRIES MAEL MSE 10   00:51:53 11,6 49
57 84 PICON PHILIPPE MM2 10   00:51:53 11,6 50
58 50 BEVILACQUA LAURIE FM0 4 BMRT 00:52:00 11,5 8
59 91 MENNANA SLIMANE MM5 3 ATHLE PEZENAS 34 00:52:03 11,5 51
60 82 PAMBRUN BENOÎT MM3 6   00:52:26 11,4 52
61 164 DURAND NICOLAS MM3 7 Montpellier Running Club 00:52:37 11,4 53
62 233 COURJOU MOHAMED MM0 7   00:52:45 11,4 54
63 209 SIMON DIMITRI MSE 11   00:53:25 11,2 55
64 145 GRACIA JULIE FSE 1   00:53:27 11,2 9
65 154 MARTIN FRÉDÉRIC MM3 8   00:53:30 11,2 56
66 8 MAJONCHI JULIETTE FCA 1   00:53:32 11,2 10
67 219 CASTELL STEPHANE MM3 9   00:53:35 11,2 57
68 149 PUCHE ALAIN MM4 6 CAMERON OlYMPIC CLUB 00:53:44 11,2 58
69 129 CURAN JÉRÉMY MM0 8   00:53:47 11,2 59
70 75 SEGUY FRANCK MM3 10   00:53:59 11,1 60
71 190 VESQUE MATHIEU   6   00:54:02 11,1 61
72 222 GOURAN NADEGE FM3 3   00:54:08 11,1 11
73 146 JULLIEN DOMINIQUE MM6 3 athle pezenas 34 00:54:09 11,1 62
74 173 BONIELLO FLORIAN MSE 12   00:54:15 11,1 63
75 121 CALABRE MARIETTE FSE 2   00:54:22 11,0 12
76 122 ROUSSEAU PAUL MSE 13   00:54:25 11,0 64
77 79 BENETEAU PHILIPPE MM5 4   00:54:27 11,0 65
78 37 HUND JEAN FRANCOIS MM4 7   00:54:27 11,0 66
79 225 PONT JEAN MARC MM4 8   00:54:34 11,0 67
80 90 BUFFARD ANTHONY MM0 9   00:54:41 11,0 68
81 115 ALENGRIN PIERRE MM4 9   00:54:49 10,9 69
82 188 DUDOIT STELLA   7   00:54:58 10,9 13
83 89 LEROY DANIEL MM6 4   00:55:01 10,9 70
84 204 TORAL OLIVIER MM3 11   00:55:06 10,9 71
85 152 AUGE SÉBASTIEN MM2 11   00:55:26 10,8 72
86 92 BABILLOT THOMAS MSE 14   00:55:31 10,8 73
87 59 GIMBAL ALEXANDRE MES 1   00:55:49 10,7 74
88 26 MOITY PATRICK MM8 1   00:55:53 10,7 75
89 196 MOUSSA RAMZY MM2 12   00:55:54 10,7 76
90 11 COMBÈS LOANE FCA 2   00:55:59 10,7 14
91 56 SALIES JEANNE FES 1   00:56:10 10,7 15
92 80 BENETEAU MATHILDE FSE 3   00:56:10 10,7 16
93 107 MARTINEZ SARITA FM5 1 BMRT 00:56:11 10,7 17
94 140 DUMET CLARA FSE 4   00:56:26 10,6 18
95 93 RAHMOUNI-NORYCH SARAH FES 2 BEZIERS CHEMINOTS ATHLETISME MEDITERRANEE 00:56:34 10,6 19
96 68 DONNADILLES JEAN PHILIPPE MM4 10   00:57:02 10,5 77
97 15 BERTRAND GRÉGORY MSE 15   00:57:11 10,5 78
98 14 REJNERI CHRISTOPHE MM4 11 CARGO 00:57:11 10,5 79
99 193 MALLET CLEMENT   8   00:57:15 10,5 80
100 194 GABRIELLI JEAN FRANCOIS MM1 9   00:57:19 10,5 81
101 61 LEHU JORIS MSE 16   00:57:23 10,5 82
102 143 ROQUES JEAN MICHEL MM4 12   00:57:41 10,4 83
103 206 PRIVAT SANDRA FM1 3   00:58:15 10,3 20
104 205 AMBAL ROBIN MM2 13   00:58:16 10,3 84
105 126 MONFORT ELVIRE FM3 4   00:58:17 10,3 21
106 191 COMBESCURE VALERIE   10   00:58:20 10,3 22
107 38 BESSON JULIEN MM1 10   00:58:21 10,3 85
108 9 MAJONCHI PATRICK MM3 12   00:58:24 10,3 86
109 159 QUIRINY JEAN YVES MM1 11   00:58:24 10,3 87
110 34 SARRAZIN PUECH JUSTINE FSE 5   00:58:27 10,3 23
111 161 FERRER FRÉDÉRIC MM4 13   00:58:39 10,2 88
112 111 CORINO NATHALIE FM4 1   00:58:42 10,2 24
113 88 LEGUE BRUNO MM5 5   00:58:55 10,2 89
114 63 SALES ELODIE FM0 5   00:59:00 10,2 25
115 3 VALENTIN JENNIFER FM0 6   00:59:13 10,1 26
116 182 AZNAR SYLVAIN MM1 12   00:59:29 10,1 90
117 171 LECHAT MARJORIE FM1 4   00:59:38 10,1 27
118 174 COCHET JULIEN MM0 10 beziers trail running 00:59:42 10,0 91
119 72 COSTE BERNARD MM6 5 STADE MONTBLANAIS 00:59:46 10,0 92
120 10 RIBEIRO DA FONSECA ROMANE FSE 6   00:59:50 10,0 28
121 167 ROGER MARION FSE 7 pas de club 01:00:02 10,0 29
122 52 PERELLO LINO MSE 17   01:00:07 10,0 93
123 166 MALZAC BENJAMIN MM2 14   01:00:11 10,0 94
124 43 MALZAC-BEUCHOT VIRGINIE FM2 1   01:00:11 10,0 30
125 231 RUIZ ELENA FJU 1   01:00:14 10,0 31
126 120 SALINAS FREDERIC MM4 14   01:00:34 9,9 95
127 36 SANTERRE BÉRENGÈRE FM1 5   01:00:35 9,9 32
128 195 DIADHIOU JENNIFER FM1 6   01:00:42 9,9 33
129 178 KRETZ MARILOU FCA 3   01:00:51 9,9 34
130 141 BASCOU INES FSE 8   01:01:16 9,8 35
131 104 SALINAS LYDIA FM3 5 L RUN 01:01:17 9,8 36
132 55 MARTIN JULIETTE FSE 9   01:01:18 9,8 37
133 183 BOUSCARAS CECILE FM4 2   01:01:18 9,8 38
134 41 ROSINOL MIKAELLE FM1 7   01:01:54 9,7 39
135 4 CALVET CAMILLE FM0 7   01:01:58 9,7 40
136 223 GOUZY FRANCOISE FM5 2   01:02:00 9,7 41
137 162 ANCELY NICOLAS MM0 11   01:02:09 9,7 96
138 150 PUCHE VALERIE FM4 3 CAMERON OLYMPIQUE CLUB 01:02:10 9,7 42
139 211 CRIADO SERGE MM3 13   01:02:12 9,6 97
140 216 SONCARET PASCAL MM4 15   01:02:20 9,6 98
141 78 GALINIER CHRISTIAN MM4 16   01:02:59 9,5 99
142 155 JALABERT CHRISTOPHE MM3 14   01:03:02 9,5 100
143 210 REDON LUCILE FSE 10   01:03:04 9,5 43
144 136 SAUTEL ADELINE FM0 8   01:03:05 9,5 44
145 49 FIORINA MANON FSE 11   01:03:29 9,4 45
146 106 GAROFALO STÉPHANE MM4 17 LRUN (Lieuran) 01:03:35 9,4 101
147 29 BOUSQUET VALERIE FM5 3   01:04:01 9,4 46
148 215 SABANNE   MM0 12   01:04:03 9,4 102
149 176 FAVRE HERVE MM7 1   01:04:06 9,4 103
150 181 CROCHON DYLAN MSE 18 beziers trail running 01:04:12 9,3 104
151 16 LIGUORI LAURA FSE 12   01:04:14 9,3 47
152 177 MOORE WOUTER MM1 13   01:04:15 9,3 105
153 153 MAYEUX VINCENT MSE 19   01:04:35 9,3 106
154 163 PAILLET PIERRE MM6 6   01:04:47 9,3 107
155 232 MOLL NICOLAS MSE 20   01:04:48 9,3 108
156 99 SURY BARBARA FM4 4   01:04:48 9,3 48
157 96 RIBEYRE CLAUDIA FM2 2   01:04:49 9,3 49
158 112 FICHET FLORIAN MM0 13   01:05:06 9,2 109
159 156 LAIRIS MAUD FSE 13   01:05:17 9,2 50
160 157 CABANES DAMIEN MSE 21   01:05:18 9,2 110
161 127 ALFONSO ELOÏSE FJU 2   01:05:24 9,2 51
162 35 LERDA NADINE FM5 4   01:05:30 9,2 52
163 40 CRISTOL ANNE MARIE FM0 9   01:05:35 9,1 53
164 100 MERCIER MEREDITH FM0 10   01:05:52 9,1 54
165 98 BOHEME LOLA FM0 11   01:05:53 9,1 55
166 226 GILLET STEPHANE MM3 15   01:06:15 9,1 111
167 116 Anonyme Anonyme FSE 14   01:06:35 9,0 56
168 124 Anonyme Anonyme MM1 14   01:06:41 9,0 112
169 123 MATHIEU MANON FSE 15   01:06:41 9,0 57
170 224 JACQUET GREGORY MM3 16   01:06:46 9,0 113
171 39 JARJOUR ALINA FM1 8   01:07:05 8,9 58
172 27 BICHE MARIE FSE 16   01:07:10 8,9 59
173 28 INVERSO GIOVANNI MSE 22   01:07:10 8,9 114
174 25 VAREIL MARIE-CHANTAL FM7 1 MBRT 01:07:12 8,9 60
175 160 PITTANA ADRIANO MM3 17   01:07:15 8,9 115
176 76 LE FALHER AUDE FM2 3   01:07:58 8,8 61
177 97 LE FALHER GEORGES MM3 18   01:07:59 8,8 116
178 147 GARCIA JULIEN MM1 15   01:08:23 8,8 117
179 132 BAUDIN KEVIN MM1 16   01:08:23 8,8 118
180 77 FARO SIMON MM0 14   01:08:43 8,7 119
181 94 KRZYZANSKI THIERRY MM5 6 DUR A CUIR 01:08:44 8,7 120
182 119 MARY CHRISTOPHE MM4 18   01:09:13 8,7 121
183 95 LAVAL MARIN MM5 7   01:09:24 8,6 122
184 172 MARTY LECHAT LAURINE FCA 4 beziers trail running 01:09:42 8,6 62
185 214 GAUDEFRAY JONATHAN MM0 15   01:09:53 8,6 123
186 117 BENDAHO KADER MM4 19   01:09:54 8,6 124
187 137 ESCAFFIT JULIEN MM1 17   01:09:57 8,6 125
188 58 BOUVEAU ALEXANDRA FSE 17   01:10:28 8,5 63
189 60 MELINON CHLOE FM1 9   01:10:30 8,5 64
190 199 GRANIE MARC MM7 2   01:11:56 8,3 126
191 105 BRUNIQUEL JOHAN MSE 23   01:11:58 8,3 127
192 228 RAGON CARLA FSE 18   01:12:36 8,3 65
193 218 MATTERA FAUSTINE FJU 3   01:12:36 8,3 66
194 227 MIRALLES MARIE FSE 19   01:12:37 8,3 67
195 229 SAULE YANNICK MSE 24   01:12:37 8,3 128
196 207 PRIVAT JEROME MM2 15   01:12:38 8,3 129
197 62 GERVASONI SYLVIE FM5 5 CAPS DE PAYRIN 01:13:02 8,2 68
198 200 LEYDIER LAURENT MM5 8   01:13:33 8,2 130
199 18 RICHARDIERE CAROLINE FM1 10   01:13:33 8,2 69
200 30 BICHE LYSIANE FM7 2   01:13:51 8,1 70
201 118 PICON FAUSTINE FJU 4   01:14:33 8,0 71
202 81 BOTELLA BÉATRICE FM4 5 APAVE 01:14:33 8,0 72
203 184 CALMEL CHRISTELLE FM1 11   01:14:40 8,0 73
204 185 ANDREO MARINE FSE 20   01:14:40 8,0 74
205 19 GIRONELL MARILYNE FM1 12   01:16:04 7,9 75
206 128 NGUYEN CÉCILE FM0 12   01:16:06 7,9 76
207 12 ROUVIERE SYLVIE FM4 6   01:16:37 7,8 77
208 130 WAND KATJA FM5 6 Röntgenlöper 01:17:18 7,8 78
209 144 VIDAL LAURENT MM2 16   01:19:22 7,6 131
210 31 CASTELVI DOMINIQUE FM7 3   01:19:27 7,6 79
211 45 CADORET DANIEL MM8 2 US MÉRY ATHLÉTIC CLUB 01:20:02 7,5 132
212 170 CADORET RODOLPHE MM3 19   01:20:02 7,5 133
213 179 FREDERICO MARION FSE 21   01:20:31 7,5 80